TimeMDT,TemperatureF,Dew PointF,Humidity,Sea Level PressureIn,VisibilityMPH,Wind Direction,Wind SpeedMPH,Gust SpeedMPH,PrecipitationIn,Events,Conditions,WindDirDegrees,DateUTC
12:53 AM,23.0,12.0,63,30.02,10.0,WSW,3.5,-,N/A,,Clear,240,2013-03-22 06:53:00
1:53 AM,21.9,14.0,72,30.01,10.0,ENE,3.5,-,N/A,,Clear,60,2013-03-22 07:53:00
2:53 AM,21.0,12.0,68,29.99,10.0,East,4.6,-,N/A,,Clear,100,2013-03-22 08:53:00
3:53 AM,21.0,12.0,68,29.96,10.0,ENE,3.5,-,N/A,,Clear,70,2013-03-22 09:53:00
4:53 AM,19.9,10.9,68,29.93,10.0,East,3.5,-,N/A,,Clear,80,2013-03-22 10:53:00
5:53 AM,18.0,10.9,74,29.93,10.0,Calm,Calm,-,N/A,,Clear,0,2013-03-22 11:53:00
6:53 AM,18.0,9.0,68,29.93,10.0,ENE,5.8,-,N/A,,Clear,70,2013-03-22 12:53:00
7:53 AM,17.1,10.9,77,29.95,10.0,SSW,3.5,-,N/A,,Clear,210,2013-03-22 13:53:00
8:53 AM,21.0,10.0,63,29.95,10.0,East,3.5,-,N/A,,Partly Cloudy,80,2013-03-22 14:53:00
9:53 AM,24.1,12.0,60,29.95,10.0,Variable,4.6,-,N/A,,Mostly Cloudy,0,2013-03-22 15:53:00
10:53 AM,26.1,10.9,53,29.93,10.0,SSE,3.5,-,N/A,,Mostly Cloudy,160,2013-03-22 16:53:00
11:53 AM,28.9,12.0,49,29.91,10.0,Calm,Calm,-,N/A,,Overcast,0,2013-03-22 17:53:00
12:53 PM,28.9,14.0,54,29.91,10.0,Calm,Calm,-,N/A,,Overcast,0,2013-03-22 18:53:00
1:53 PM,30.0,16.0,56,29.88,10.0,Calm,Calm,-,N/A,,Overcast,0,2013-03-22 19:53:00
2:53 PM,27.0,19.0,72,29.90,6.0,NNE,9.2,-,N/A,,Haze,30,2013-03-22 20:53:00
3:13 PM,26.6,17.6,69,29.79,7.0,Calm,Calm,-,0.00,Snow,Light Snow,0,2013-03-22 21:13:00
3:31 PM,26.6,17.6,69,29.78,1.8,North,3.5,-,0.00,Snow,Light Snow,350,2013-03-22 21:31:00
3:42 PM,26.6,19.4,74,29.78,3.0,Calm,Calm,-,0.00,Snow,Light Snow,0,2013-03-22 21:42:00
3:53 PM,26.1,21.0,81,29.91,2.5,SE,5.8,-,0.00,Snow,Light Snow,140,2013-03-22 21:53:00
4:06 PM,26.6,21.2,80,29.78,3.0,SE,5.8,-,0.00,Snow,Light Snow,130,2013-03-22 22:06:00
4:18 PM,26.6,19.4,74,29.78,2.5,SE,5.8,-,0.00,Snow,Light Snow,140,2013-03-22 22:18:00
4:25 PM,26.6,21.2,80,29.78,1.8,ESE,6.9,-,0.00,Snow,Light Snow,120,2013-03-22 22:25:00
4:30 PM,26.6,19.4,74,29.78,3.0,SE,5.8,-,0.00,Snow,Light Snow,140,2013-03-22 22:30:00
4:53 PM,26.1,19.0,75,29.91,10.0,South,4.6,-,0.00,,Overcast,180,2013-03-22 22:53:00
5:53 PM,27.0,18.0,69,29.91,10.0,SSE,4.6,-,N/A,,Overcast,160,2013-03-22 23:53:00
6:53 PM,27.0,15.1,61,29.92,10.0,Calm,Calm,-,N/A,,Overcast,0,2013-03-23 00:53:00
7:36 PM,26.6,19.4,74,29.80,2.0,WNW,6.9,-,0.00,Snow,Light Snow,290,2013-03-23 01:36:00
7:40 PM,24.8,19.4,80,29.81,1.0,West,6.9,-,0.00,Snow,Light Snow,280,2013-03-23 01:40:00
7:45 PM,24.8,19.4,80,29.81,0.5,WNW,3.5,-,0.01,Snow,Snow,290,2013-03-23 01:45:00
7:48 PM,24.8,19.4,80,29.81,0.5,Variable,5.8,-,0.01,Snow,Snow,0,2013-03-23 01:48:00
7:53 PM,24.1,19.9,84,29.96,0.5,NW,9.2,-,0.02,Fog-Snow,Snow,310,2013-03-23 01:53:00
8:26 PM,23.0,19.4,86,29.82,1.2,North,4.6,-,0.01,Snow,Light Snow,360,2013-03-23 02:26:00
8:48 PM,23.0,19.4,86,29.83,1.2,NNW,4.6,-,0.02,Snow,Light Snow,330,2013-03-23 02:48:00
8:53 PM,23.0,19.0,85,29.97,1.5,North,4.6,-,0.02,Snow,Light Snow,360,2013-03-23 02:53:00
8:58 PM,23.0,19.4,86,29.83,2.0,North,3.5,-,0.00,Snow,Light Snow,360,2013-03-23 02:58:00
9:08 PM,23.0,19.4,86,29.83,4.0,Calm,Calm,-,0.00,Snow,Light Snow,0,2013-03-23 03:08:00
9:25 PM,23.0,19.4,86,29.83,2.0,Calm,Calm,-,0.00,Snow,Light Snow,0,2013-03-23 03:25:00
9:33 PM,23.0,19.4,86,29.83,1.2,Calm,Calm,-,0.00,Snow,Light Snow,0,2013-03-23 03:33:00
9:41 PM,23.0,19.4,86,29.83,0.8,NW,4.6,-,0.01,Snow,Light Snow,320,2013-03-23 03:41:00
9:48 PM,23.0,19.4,86,29.84,0.8,NW,4.6,-,0.01,Snow,Light Snow,320,2013-03-23 03:48:00
9:53 PM,23.0,19.9,88,29.96,0.8,NW,3.5,-,0.02,Snow,Light Snow,320,2013-03-23 03:53:00
10:00 PM,23.0,19.4,86,29.84,0.8,NW,3.5,-,0.00,Snow,Light Snow,320,2013-03-23 04:00:00
10:48 PM,23.0,19.4,86,29.83,1.0,West,5.8,-,0.03,Snow,Light Snow,260,2013-03-23 04:48:00
10:53 PM,23.0,19.9,88,29.95,1.0,West,5.8,-,0.03,Snow,Light Snow,270,2013-03-23 04:53:00
11:04 PM,23.0,19.4,86,29.83,1.0,West,10.4,-,0.01,Snow,Light Snow,280,2013-03-23 05:04:00
11:08 PM,21.2,17.6,86,29.83,0.8,WNW,10.4,-,0.01,Snow,Light Snow,290,2013-03-23 05:08:00
11:17 PM,21.2,17.6,86,29.83,0.8,WNW,12.7,-,0.01,Snow,Light Snow,300,2013-03-23 05:17:00
11:21 PM,21.2,15.8,80,29.82,1.2,WNW,9.2,-,0.01,Snow,Light Snow,300,2013-03-23 05:21:00
11:37 PM,21.2,15.8,80,29.83,2.0,West,9.2,-,0.01,Snow,Light Snow,260,2013-03-23 05:37:00
11:45 PM,21.2,15.8,80,29.83,2.5,WSW,8.1,-,0.01,Snow,Light Snow,250,2013-03-23 05:45:00
11:53 PM,21.0,16.0,81,29.94,2.5,WSW,8.1,-,0.01,Snow,Light Snow,250,2013-03-23 05:53:00